Preview of NWS' New Version of Forecast
This preview is not operational and should not be used for support decisions.

Regional Weather Roundup (RWR)

Issued by National Weather Service (NWS)

                            
000
ASUS43 KTOP 191808
RWRKS 

WEATHER ROUNDUP FOR KANSAS
NATIONAL WEATHER SERVICE GOODLAND KS
100 PM CDT FRI APR 19 2019

NOTE:  "FAIR" INDICATES FEW OR NO CLOUDS BELOW 12,000 FEET WITH NO
SIGNIFICANT WEATHER AND/OR OBSTRUCTIONS TO VISIBILITY.

KSZ001>006-013>018-027>032-041>047-191900-
NORTHWEST KANSAS
  
CITY           SKY/WX    TMP DP  RH WIND       PRES   REMARKS
GOODLAND       SUNNY     64  30  27 MISG      30.12F                  
6HR MIN TEMP:  30; 6HR MAX TEMP:  64;                                

HAYS           SUNNY     61  32  33 N14       30.14F                  
HILL CITY      SUNNY     61  33  35 MISG      30.14F                  
6HR MIN TEMP:  35; 6HR MAX TEMP:  61;                                

RUSSELL        SUNNY     61  33  35 N16       30.12F                  
6HR MIN TEMP:  35; 6HR MAX TEMP:  61;                                

$$

KSZ061>065-074>080-084>089-191900-
SOUTHWEST KANSAS
  
CITY           SKY/WX    TMP DP  RH WIND       PRES   REMARKS
DODGE CITY     SUNNY     61  29  29 NW8G25    30.15F                  
6HR MIN TEMP:  32; 6HR MAX TEMP:  61;                                

ELKHART        SUNNY     65  32  29 W7        30.18F                  
GARDEN CITY    SUNNY     59  24  26 VRB6      30.15F                  
6HR MIN TEMP:  34; 6HR MAX TEMP:  61;                                

GREAT BEND     MOSUNNY   58  36  43 N10       30.14F                  
LIBERAL        SUNNY     62  26  25 NW12      30.18F                  
PRATT          MOSUNNY   61  33  36 N15G23    30.14F                  
6HR MIN TEMP:  36; 6HR MAX TEMP:  61;                                

$$

KSZ066>073-081>083-090>101-191900-
SOUTHEAST KANSAS
  
CITY           SKY/WX    TMP DP  RH WIND       PRES   REMARKS
CHANUTE        MOSUNNY   61  35  37 N21G28    30.04F                  
6HR MIN TEMP:  46; 6HR MAX TEMP:  62;                                

COFFEYVILLE    MOSUNNY   60  37  42 NW20G30   30.03F                  
6HR MIN TEMP:  46; 6HR MAX TEMP:  62;                                

HUTCHINSON     SUNNY     62  33  33 N14G23    30.11F                  
6HR MIN TEMP:  37; 6HR MAX TEMP:  62;                                

MEDICINE LODGE   N/A     62  37  39 N12G24    30.13F                  
NEWTON         SUNNY     59  35  40 NW16G26   30.10F                  
PARSONS        MOSUNNY   60  36  40 N16G26    30.05F                  
6HR MIN TEMP:  45; 6HR MAX TEMP:  62;                                

WICHITA INTL   MOSUNNY   62  34  35 N22G28    30.10F                  
6HR MIN TEMP:  43; 6HR MAX TEMP:  62;                                

WICHITA JABRA  SUNNY     60  34  37 N18       30.10F                  
6HR MIN TEMP:  41; 6HR MAX TEMP:  61;                                

WICHITA MCCONL SUNNY     59  35  40 N17G25    30.09                   
WINFIELD       SUNNY     60  38  43 N20G28    30.11F                  
6HR MIN TEMP:  40; 6HR MAX TEMP:  60;                                

$$

KSZ007>012-019>026-033>040-048>060-102>105-191900-
NORTHEAST KANSAS
  
CITY           SKY/WX    TMP DP  RH WIND       PRES   REMARKS
CONCORDIA      SUNNY     62  31  31 N13       30.11F                  
EMPORIA        MOSUNNY   60  34  37 N15G26    30.06F                  
6HR MIN TEMP:  42; 6HR MAX TEMP:  60;                                

LAWRENCE       SUNNY     62  34  35 N16G24    30.05F                  
6HR MIN TEMP:  41; 6HR MAX TEMP:  62;                                

MANHATTAN      SUNNY     61  33  35 N10G21    30.10F                  
6HR MIN TEMP:  42; 6HR MAX TEMP:  61;                                

MARYSVILLE     SUNNY     61  32  33 N10       30.09F                  
OLATHE IND     MOSUNNY   58  36  43 NW17G28   30.04F                  
6HR MIN TEMP:  43; 6HR MAX TEMP:  58;                                

OLATHE EXE     MOSUNNY   57  33  40 N14G28    30.03F                  
6HR MIN TEMP:  42; 6HR MAX TEMP:  57;                                

SALINA         SUNNY     60  35  39 N14G23    30.12F                  
6HR MIN TEMP:  38; 6HR MAX TEMP:  61;                                

TOPEKA BILLARD SUNNY     61  34  36 N16G28    30.06F                  
6HR MIN TEMP:  43; 6HR MAX TEMP:  61;                                

TOPEKA FORBES  MOSUNNY   60  35  39 N20G26    30.06F                  
6HR MIN TEMP:  42; 6HR MAX TEMP:  61;                                

$$